Year,Month,Day,Hour,Minute,Value (Times are PST for temperature in C)
2014,07,25,00,00,15.20
2014,07,25,00,05,15.20
2014,07,25,00,06,15.20
2014,07,25,00,07,15.20
2014,07,25,00,08,15.10
2014,07,25,00,09,15.10
2014,07,25,00,10,15.10
2014,07,25,00,11,15.20
2014,07,25,00,12,15.10
2014,07,25,00,13,15.10
2014,07,25,00,14,15.10
2014,07,25,00,15,15.10
2014,07,25,00,16,15.10
2014,07,25,00,17,15.10
2014,07,25,00,18,15.10
2014,07,25,00,19,15.10
2014,07,25,00,20,15.10
2014,07,25,00,21,15.10
2014,07,25,00,22,15.10
2014,07,25,00,23,15.10
2014,07,25,00,24,15.10
2014,07,25,00,25,15.10
2014,07,25,00,26,15.10
2014,07,25,00,27,15.10
2014,07,25,00,28,15.10
2014,07,25,00,29,15.10
2014,07,25,00,30,15.00
2014,07,25,00,31,15.00
2014,07,25,00,32,15.00
2014,07,25,00,33,15.00
2014,07,25,00,34,14.90
2014,07,25,00,35,14.90
2014,07,25,00,36,15.00
2014,07,25,00,37,15.00
2014,07,25,00,38,15.00
2014,07,25,00,39,15.00
2014,07,25,00,40,15.00
2014,07,25,00,41,15.00
2014,07,25,00,42,15.00
2014,07,25,00,43,15.00
2014,07,25,00,44,15.00
2014,07,25,00,45,14.90
2014,07,25,00,46,14.90
2014,07,25,00,47,14.90
2014,07,25,00,48,14.90
2014,07,25,00,49,14.90
2014,07,25,00,50,14.90
2014,07,25,00,51,14.90
2014,07,25,00,52,14.90
2014,07,25,00,53,14.90
2014,07,25,00,54,14.90
2014,07,25,00,55,14.90
2014,07,25,00,56,14.90
2014,07,25,00,57,14.90
2014,07,25,00,58,14.90
2014,07,25,00,59,14.90
2014,07,25,01,00,14.90
2014,07,25,01,01,14.90
2014,07,25,01,02,14.90
2014,07,25,01,03,14.80
2014,07,25,01,04,14.80
2014,07,25,01,05,14.80
2014,07,25,01,06,14.80
2014,07,25,01,07,14.80
2014,07,25,01,08,14.80
2014,07,25,01,09,14.80
2014,07,25,01,10,14.80
2014,07,25,01,11,14.80
2014,07,25,01,12,14.80
2014,07,25,01,13,14.80
2014,07,25,01,14,14.80
2014,07,25,01,15,14.80
2014,07,25,01,16,14.80
2014,07,25,01,17,14.70
2014,07,25,01,18,14.70
2014,07,25,01,19,14.80
2014,07,25,01,20,14.70
2014,07,25,01,21,14.70
2014,07,25,01,22,14.70
2014,07,25,01,23,14.70
2014,07,25,01,24,14.70
2014,07,25,01,25,14.70
2014,07,25,01,26,14.70
2014,07,25,01,27,14.60
2014,07,25,01,28,14.60
2014,07,25,01,29,14.60
2014,07,25,01,30,14.60
2014,07,25,01,31,14.60
2014,07,25,01,32,14.60
2014,07,25,01,33,14.60
2014,07,25,01,34,14.60
2014,07,25,01,35,14.60
2014,07,25,01,36,14.60
2014,07,25,01,37,14.60
2014,07,25,01,38,14.60
2014,07,25,01,39,14.60
2014,07,25,01,40,14.60
2014,07,25,01,41,14.60
2014,07,25,01,42,14.60
2014,07,25,01,43,14.60
2014,07,25,01,44,14.60
2014,07,25,01,45,14.50
2014,07,25,01,46,14.50
2014,07,25,01,47,14.50
2014,07,25,01,48,14.50
2014,07,25,01,49,14.50
2014,07,25,01,50,14.40
2014,07,25,01,51,14.40
2014,07,25,01,52,14.40
2014,07,25,01,53,14.40
2014,07,25,01,54,14.30
2014,07,25,01,55,14.30
2014,07,25,01,56,14.30
2014,07,25,01,57,14.20
2014,07,25,01,58,14.20
2014,07,25,01,59,14.20
2014,07,25,02,00,14.20
2014,07,25,02,01,14.20
2014,07,25,02,02,14.20
2014,07,25,02,03,14.10
2014,07,25,02,04,14.10
2014,07,25,02,05,14.10
2014,07,25,02,06,14.10
2014,07,25,02,07,14.10
2014,07,25,02,08,14.10
2014,07,25,02,09,14.10
2014,07,25,02,10,14.10
2014,07,25,02,11,14.10
2014,07,25,02,12,14.00
2014,07,25,02,13,14.00
2014,07,25,02,14,14.00
2014,07,25,02,15,13.90
2014,07,25,02,16,13.90
2014,07,25,02,17,13.90
2014,07,25,02,18,13.90
2014,07,25,02,19,13.80
2014,07,25,02,20,13.80
2014,07,25,02,21,13.80
2014,07,25,02,22,13.70
2014,07,25,02,23,13.70
2014,07,25,02,24,13.60
2014,07,25,02,25,13.60
2014,07,25,02,26,13.60
2014,07,25,02,27,13.50
2014,07,25,02,28,13.50
2014,07,25,02,29,13.50
2014,07,25,02,30,13.50
2014,07,25,02,31,13.40
2014,07,25,02,32,13.40
2014,07,25,02,33,13.40
2014,07,25,02,34,13.40
2014,07,25,02,35,13.30
2014,07,25,02,36,13.30
2014,07,25,02,37,13.30
2014,07,25,02,38,13.20
2014,07,25,02,39,13.20
2014,07,25,02,40,13.20
2014,07,25,02,41,13.20
2014,07,25,02,42,13.20
2014,07,25,02,43,13.20
2014,07,25,02,44,13.20
2014,07,25,02,45,13.10
2014,07,25,02,46,13.10
2014,07,25,02,47,13.00
2014,07,25,02,48,13.00
2014,07,25,02,49,13.00
2014,07,25,02,50,13.00
2014,07,25,02,51,12.90
2014,07,25,02,52,12.90
2014,07,25,02,53,12.90
2014,07,25,02,54,12.90
2014,07,25,02,55,12.90
2014,07,25,02,56,12.80
2014,07,25,02,57,12.80
2014,07,25,02,58,12.80
2014,07,25,02,59,12.80
2014,07,25,03,00,12.80
2014,07,25,03,01,12.80
2014,07,25,03,02,12.80
2014,07,25,03,03,12.80
2014,07,25,03,04,12.80
2014,07,25,03,05,12.80
2014,07,25,03,06,12.80
2014,07,25,03,07,12.80
2014,07,25,03,08,12.70
2014,07,25,03,09,12.70
2014,07,25,03,10,12.70
2014,07,25,03,11,12.70
2014,07,25,03,12,12.70
2014,07,25,03,13,12.70
2014,07,25,03,14,12.70
2014,07,25,03,15,12.70
2014,07,25,03,16,12.70
2014,07,25,03,17,12.70
2014,07,25,03,18,12.70
2014,07,25,03,19,12.70
2014,07,25,03,20,12.70
2014,07,25,03,21,12.70
2014,07,25,03,22,12.70
2014,07,25,03,23,12.60
2014,07,25,03,24,12.60
2014,07,25,03,25,12.60
2014,07,25,03,26,12.60
2014,07,25,03,27,12.60
2014,07,25,03,28,12.60
2014,07,25,03,29,12.60
2014,07,25,03,30,12.60
2014,07,25,03,31,12.60
2014,07,25,03,32,12.50
2014,07,25,03,33,12.50
2014,07,25,03,34,12.50
2014,07,25,03,35,12.50
2014,07,25,03,36,12.50
2014,07,25,03,37,12.50
2014,07,25,03,38,12.40
2014,07,25,03,39,12.40
2014,07,25,03,40,12.40
2014,07,25,03,41,12.50
2014,07,25,03,42,12.50
2014,07,25,03,43,12.50
2014,07,25,03,44,12.60
2014,07,25,03,45,12.60
2014,07,25,03,46,12.60
2014,07,25,03,47,12.60
2014,07,25,03,48,12.60
2014,07,25,03,49,12.60
2014,07,25,03,50,12.60
2014,07,25,03,51,12.60
2014,07,25,03,52,12.60
2014,07,25,03,53,12.60
2014,07,25,03,54,12.60
2014,07,25,03,55,12.60
2014,07,25,03,56,12.60
2014,07,25,03,57,12.50
2014,07,25,03,58,12.50
2014,07,25,03,59,12.50
2014,07,25,04,00,12.50
2014,07,25,04,01,12.50
2014,07,25,04,02,12.50
2014,07,25,04,03,12.60
2014,07,25,04,04,12.60
2014,07,25,04,05,12.60
2014,07,25,04,06,12.60
2014,07,25,04,07,12.60
2014,07,25,04,08,12.60
2014,07,25,04,09,12.60
2014,07,25,04,10,12.60
2014,07,25,04,11,12.60
2014,07,25,04,12,12.50
2014,07,25,04,13,12.50
2014,07,25,04,14,12.50
2014,07,25,04,15,12.50
2014,07,25,04,16,12.50
2014,07,25,04,17,12.50
2014,07,25,04,18,12.50
2014,07,25,04,19,12.50
2014,07,25,04,20,12.50
2014,07,25,04,21,12.50
2014,07,25,04,22,12.50
2014,07,25,04,23,12.50
2014,07,25,04,24,12.40
2014,07,25,04,25,12.40
2014,07,25,04,26,12.40
2014,07,25,04,27,12.40
2014,07,25,04,28,12.40
2014,07,25,04,29,12.40
2014,07,25,04,30,12.40
2014,07,25,04,31,12.40
2014,07,25,04,32,12.40
2014,07,25,04,33,12.40
2014,07,25,04,34,12.30
2014,07,25,04,35,12.30
2014,07,25,04,36,12.30
2014,07,25,04,37,12.30
2014,07,25,04,38,12.30
2014,07,25,04,39,12.20
2014,07,25,04,40,12.20
2014,07,25,04,41,12.20
2014,07,25,04,42,12.20
2014,07,25,04,43,12.30
2014,07,25,04,44,12.30
2014,07,25,04,45,12.30
2014,07,25,04,46,12.30
2014,07,25,04,47,12.30
2014,07,25,04,48,12.30
2014,07,25,04,49,12.30
2014,07,25,04,50,12.30
2014,07,25,04,51,12.30
2014,07,25,04,52,12.30
2014,07,25,04,53,12.30
2014,07,25,04,54,12.30
2014,07,25,04,55,12.30
2014,07,25,04,56,12.30
2014,07,25,04,57,12.30
2014,07,25,04,58,12.30
2014,07,25,04,59,12.30
2014,07,25,05,00,12.30
2014,07,25,05,01,12.30
2014,07,25,05,02,12.30
2014,07,25,05,03,12.30
2014,07,25,05,04,12.30
2014,07,25,05,05,12.30
2014,07,25,05,06,12.30
2014,07,25,05,07,12.30
2014,07,25,05,08,12.40
2014,07,25,05,09,12.40
2014,07,25,05,10,12.40
2014,07,25,05,11,12.40
2014,07,25,05,12,12.40
2014,07,25,05,13,12.40
2014,07,25,05,14,12.40
2014,07,25,05,15,12.40
2014,07,25,05,16,12.40
2014,07,25,05,17,12.40
2014,07,25,05,18,12.40
2014,07,25,05,19,12.40
2014,07,25,05,20,12.40
2014,07,25,05,21,12.40
2014,07,25,05,22,12.40
2014,07,25,05,23,12.40
2014,07,25,05,24,12.40
2014,07,25,05,25,12.40
2014,07,25,05,26,12.40
2014,07,25,05,27,12.40
2014,07,25,05,28,12.40
2014,07,25,05,29,12.40
2014,07,25,05,30,12.40
2014,07,25,05,31,12.40
2014,07,25,05,32,12.40
2014,07,25,05,33,12.40
2014,07,25,05,34,12.40
2014,07,25,05,35,12.40
2014,07,25,05,36,12.40
2014,07,25,05,37,12.40
2014,07,25,05,38,12.50
2014,07,25,05,39,12.50
2014,07,25,05,40,12.50
2014,07,25,05,41,12.50
2014,07,25,05,42,12.50
2014,07,25,05,43,12.50
2014,07,25,05,44,12.50
2014,07,25,05,45,12.50
2014,07,25,05,46,12.50
2014,07,25,05,47,12.50
2014,07,25,05,48,12.50
2014,07,25,05,49,12.50
2014,07,25,05,50,12.50
2014,07,25,05,51,12.50
2014,07,25,05,52,12.50
2014,07,25,05,53,12.60
2014,07,25,05,54,12.60
2014,07,25,05,55,12.60
2014,07,25,05,56,12.60
2014,07,25,05,57,12.60
2014,07,25,05,58,12.60
2014,07,25,05,59,12.60
2014,07,25,06,00,12.60
2014,07,25,06,01,12.70
2014,07,25,06,02,12.70
2014,07,25,06,03,12.70
2014,07,25,06,04,12.70
2014,07,25,06,05,12.70
2014,07,25,06,06,12.70
2014,07,25,06,07,12.70
2014,07,25,06,08,12.70
2014,07,25,06,09,12.70
2014,07,25,06,10,12.70
2014,07,25,06,11,12.70
2014,07,25,06,12,12.70
2014,07,25,06,13,12.70
2014,07,25,06,14,12.70
2014,07,25,06,15,12.70
2014,07,25,06,16,12.70
2014,07,25,06,17,12.80
2014,07,25,06,18,12.80
2014,07,25,06,19,12.80
2014,07,25,06,20,12.80
2014,07,25,06,21,12.80
2014,07,25,06,22,12.80
2014,07,25,06,23,12.80
2014,07,25,06,24,12.80
2014,07,25,06,25,12.80
2014,07,25,06,26,12.80
2014,07,25,06,27,12.80
2014,07,25,06,28,12.80
2014,07,25,06,29,12.80
2014,07,25,06,30,12.80
2014,07,25,06,31,12.80
2014,07,25,06,32,12.80
2014,07,25,06,33,12.80
2014,07,25,06,34,12.80
2014,07,25,06,35,12.80
2014,07,25,06,36,12.80
2014,07,25,06,37,12.80
2014,07,25,06,38,12.80
2014,07,25,06,39,12.80
2014,07,25,06,40,12.90
2014,07,25,06,41,12.90
2014,07,25,06,42,12.90
2014,07,25,06,43,12.90
2014,07,25,06,44,12.90
2014,07,25,06,45,13.00
2014,07,25,06,46,13.00
2014,07,25,06,47,13.00
2014,07,25,06,48,13.00
2014,07,25,06,49,13.00
2014,07,25,06,50,13.10
2014,07,25,06,51,13.10
2014,07,25,06,52,13.10
2014,07,25,06,53,13.10
2014,07,25,06,54,13.10
2014,07,25,06,55,13.10
2014,07,25,06,56,13.20
2014,07,25,06,57,13.20
2014,07,25,06,58,13.20
2014,07,25,06,59,13.20
2014,07,25,07,00,13.20
2014,07,25,07,01,13.30
2014,07,25,07,02,13.30
2014,07,25,07,03,13.30
2014,07,25,07,04,13.30
2014,07,25,07,05,13.30
2014,07,25,07,06,13.30
2014,07,25,07,07,13.40
2014,07,25,07,08,13.40
2014,07,25,07,09,13.40
2014,07,25,07,10,13.40
2014,07,25,07,11,13.40
2014,07,25,07,12,13.40
2014,07,25,07,13,13.50
2014,07,25,07,14,13.50
2014,07,25,07,15,13.50
2014,07,25,07,16,13.50
2014,07,25,07,17,13.60
2014,07,25,07,18,13.60
2014,07,25,07,19,13.60
2014,07,25,07,20,13.60
2014,07,25,07,21,13.70
2014,07,25,07,22,13.70
2014,07,25,07,23,13.70
2014,07,25,07,24,13.70
2014,07,25,07,25,13.70
2014,07,25,07,26,13.80
2014,07,25,07,27,13.80
2014,07,25,07,28,13.80
2014,07,25,07,29,13.80
2014,07,25,07,30,13.90
2014,07,25,07,31,13.90
2014,07,25,07,32,14.00
2014,07,25,07,33,14.00
2014,07,25,07,34,14.10
2014,07,25,07,35,14.10
2014,07,25,07,36,14.10
2014,07,25,07,37,14.20
2014,07,25,07,38,14.30
2014,07,25,07,39,14.30
2014,07,25,07,40,14.40
2014,07,25,07,41,14.40
2014,07,25,07,42,14.50
2014,07,25,07,43,14.50
2014,07,25,07,44,14.60
2014,07,25,07,45,14.60
2014,07,25,07,46,14.60
2014,07,25,07,47,14.60
2014,07,25,07,48,14.60
2014,07,25,07,49,14.60
2014,07,25,07,50,14.70
2014,07,25,07,51,14.70
2014,07,25,07,52,14.70
2014,07,25,07,53,14.70
2014,07,25,07,54,14.80
2014,07,25,07,55,14.80
2014,07,25,07,56,14.80
2014,07,25,07,57,14.80
2014,07,25,07,58,14.80
2014,07,25,07,59,14.80
2014,07,25,08,00,14.80
2014,07,25,08,01,14.80
2014,07,25,08,02,14.80
2014,07,25,08,03,14.80
2014,07,25,08,04,14.80
2014,07,25,08,05,14.80
2014,07,25,08,06,14.80
2014,07,25,08,07,14.80
2014,07,25,08,08,14.90
2014,07,25,08,09,14.90
2014,07,25,08,10,14.90
2014,07,25,08,11,14.90
2014,07,25,08,12,14.90
2014,07,25,08,13,14.90
2014,07,25,08,14,14.90
2014,07,25,08,15,15.00
2014,07,25,08,16,15.00
2014,07,25,08,17,15.00
2014,07,25,08,18,15.10
2014,07,25,08,19,15.10
2014,07,25,08,20,15.10
2014,07,25,08,21,15.10
2014,07,25,08,22,15.20
2014,07,25,08,23,15.20
2014,07,25,08,24,15.20
2014,07,25,08,25,15.20
2014,07,25,08,26,15.20
2014,07,25,08,27,15.30
2014,07,25,08,28,15.30
2014,07,25,08,29,15.30
2014,07,25,08,30,15.40
2014,07,25,08,31,15.40
2014,07,25,08,32,15.40
2014,07,25,08,33,15.50
2014,07,25,08,34,15.50
2014,07,25,08,35,15.50
2014,07,25,08,36,15.50
2014,07,25,08,37,15.60
2014,07,25,08,38,15.60
2014,07,25,08,39,15.60
2014,07,25,08,40,15.60
2014,07,25,08,41,15.60
2014,07,25,08,42,15.60
2014,07,25,08,43,15.70
2014,07,25,08,44,15.70
2014,07,25,08,45,15.70
2014,07,25,08,46,15.80
2014,07,25,08,47,15.80
2014,07,25,08,48,15.80
2014,07,25,08,49,15.90
2014,07,25,08,50,15.90
2014,07,25,08,51,16.00
2014,07,25,08,52,16.10
2014,07,25,08,53,16.10
2014,07,25,08,54,16.10
2014,07,25,08,55,16.20
2014,07,25,08,56,16.20
2014,07,25,08,57,16.20
2014,07,25,08,58,16.30
2014,07,25,08,59,16.30
2014,07,25,09,00,16.30
2014,07,25,09,01,16.40
2014,07,25,09,02,16.40
2014,07,25,09,03,16.40
2014,07,25,09,04,16.50
2014,07,25,09,05,16.50
2014,07,25,09,06,16.50
2014,07,25,09,07,16.50
2014,07,25,09,08,16.50
2014,07,25,09,09,16.60
2014,07,25,09,10,16.60
2014,07,25,09,11,16.60
2014,07,25,09,12,16.70
2014,07,25,09,13,16.80
2014,07,25,09,14,16.80
2014,07,25,09,15,16.90
2014,07,25,09,16,17.00
2014,07,25,09,17,17.00
2014,07,25,09,18,17.20
2014,07,25,09,19,17.20
2014,07,25,09,20,17.20
2014,07,25,09,21,17.20
2014,07,25,09,22,17.20
2014,07,25,09,23,17.20
2014,07,25,09,24,17.20
2014,07,25,09,25,17.10
2014,07,25,09,26,17.10
2014,07,25,09,27,17.10
2014,07,25,09,28,17.10
2014,07,25,09,29,17.10
2014,07,25,09,30,17.10
2014,07,25,09,31,17.10
2014,07,25,09,32,17.10
2014,07,25,09,33,17.20
2014,07,25,09,34,17.20
2014,07,25,09,35,17.20
2014,07,25,09,36,17.20
2014,07,25,09,37,17.20
2014,07,25,09,38,17.20
2014,07,25,09,39,17.30
2014,07,25,09,40,17.30
2014,07,25,09,41,17.20
2014,07,25,09,42,17.20
2014,07,25,09,43,17.20
2014,07,25,09,44,17.20
2014,07,25,09,45,17.10
2014,07,25,09,46,17.10
2014,07,25,09,47,17.00
2014,07,25,09,48,16.90
2014,07,25,09,49,16.90
2014,07,25,09,50,16.90
2014,07,25,09,51,16.80
2014,07,25,09,52,16.80
2014,07,25,09,53,16.70
2014,07,25,09,54,16.70
2014,07,25,09,55,16.70
2014,07,25,09,56,16.70
2014,07,25,09,57,16.70
2014,07,25,09,58,16.70
2014,07,25,09,59,16.80
2014,07,25,10,00,16.80
2014,07,25,10,01,16.80
2014,07,25,10,02,16.80
2014,07,25,10,03,16.80
2014,07,25,10,04,16.70
2014,07,25,10,05,16.70
2014,07,25,10,06,16.70
2014,07,25,10,07,16.70
2014,07,25,10,08,16.70
2014,07,25,10,09,16.60
2014,07,25,10,10,16.50
2014,07,25,10,11,16.50
2014,07,25,10,12,16.50
2014,07,25,10,13,16.40
2014,07,25,10,14,16.40
2014,07,25,10,15,16.30
2014,07,25,10,16,16.30
2014,07,25,10,17,16.20
2014,07,25,10,18,16.10
2014,07,25,10,19,16.10
2014,07,25,10,20,16.00
2014,07,25,10,21,16.00
2014,07,25,10,22,16.10
2014,07,25,10,23,16.10
2014,07,25,10,24,16.10
2014,07,25,10,25,16.10
2014,07,25,10,26,16.00
2014,07,25,10,27,16.00
2014,07,25,10,28,15.90
2014,07,25,10,29,15.90
2014,07,25,10,30,15.90
2014,07,25,10,31,15.90
2014,07,25,10,32,16.00
2014,07,25,10,33,16.00
2014,07,25,10,34,16.00
2014,07,25,10,35,16.00
2014,07,25,10,36,16.00
2014,07,25,10,37,15.90
2014,07,25,10,38,15.90
2014,07,25,10,39,15.90
2014,07,25,10,40,15.90
2014,07,25,10,41,15.90
2014,07,25,10,42,16.00
2014,07,25,10,43,16.00
2014,07,25,10,44,16.00
2014,07,25,10,45,16.00
2014,07,25,10,46,16.10
2014,07,25,10,47,16.10
2014,07,25,10,48,16.10
2014,07,25,10,49,16.20
2014,07,25,10,50,16.20
2014,07,25,10,51,16.20
2014,07,25,10,52,16.20
2014,07,25,10,53,16.20
2014,07,25,10,54,16.20
2014,07,25,10,55,16.20
2014,07,25,10,56,16.30
2014,07,25,10,57,16.30
2014,07,25,10,58,16.30
2014,07,25,10,59,16.40
2014,07,25,11,00,16.50
2014,07,25,11,01,16.50
2014,07,25,11,02,16.50
2014,07,25,11,03,16.60
2014,07,25,11,04,16.60
2014,07,25,11,05,16.70
2014,07,25,11,06,16.80
2014,07,25,11,07,16.90
2014,07,25,11,08,17.00
2014,07,25,11,09,17.00
2014,07,25,11,10,17.00
2014,07,25,11,11,16.90
2014,07,25,11,12,16.90
2014,07,25,11,13,17.00
2014,07,25,11,14,17.10
2014,07,25,11,15,17.10
2014,07,25,11,16,17.10
2014,07,25,11,17,17.10
2014,07,25,11,18,17.10
2014,07,25,11,19,17.10
2014,07,25,11,20,17.20
2014,07,25,11,21,17.20
2014,07,25,11,22,17.20
2014,07,25,11,23,17.20
2014,07,25,11,24,17.20
2014,07,25,11,25,17.20
2014,07,25,11,26,17.20
2014,07,25,11,27,17.30
2014,07,25,11,28,17.30
2014,07,25,11,29,17.30
2014,07,25,11,30,17.30
2014,07,25,11,31,17.20
2014,07,25,11,32,17.20
2014,07,25,11,33,17.20
2014,07,25,11,34,17.10
2014,07,25,11,35,17.10
2014,07,25,11,36,17.00
2014,07,25,11,37,17.00
2014,07,25,11,38,16.90
2014,07,25,11,39,16.90
2014,07,25,11,40,16.80
2014,07,25,11,41,16.70
2014,07,25,11,42,16.70
2014,07,25,11,43,16.70
2014,07,25,11,44,16.70
2014,07,25,11,45,16.70
2014,07,25,11,46,16.60
2014,07,25,11,47,16.60
2014,07,25,11,48,16.70
2014,07,25,11,49,16.70
2014,07,25,11,50,16.70
2014,07,25,11,51,16.70
2014,07,25,11,52,16.70
2014,07,25,11,53,16.70
2014,07,25,11,54,16.80
2014,07,25,11,55,16.70
2014,07,25,11,56,16.70
2014,07,25,11,57,16.80
2014,07,25,11,58,16.80
2014,07,25,11,59,16.80
2014,07,25,12,00,16.70
2014,07,25,12,01,16.70
2014,07,25,12,02,16.70
2014,07,25,12,03,16.70
2014,07,25,12,04,16.80
2014,07,25,12,05,16.90
2014,07,25,12,06,16.90
2014,07,25,12,07,17.00
2014,07,25,12,08,17.00
2014,07,25,12,09,17.00
2014,07,25,12,10,16.90
2014,07,25,12,11,16.90
2014,07,25,12,12,16.80
2014,07,25,12,13,16.80
2014,07,25,12,14,16.80
2014,07,25,12,15,16.80
2014,07,25,12,16,16.80
2014,07,25,12,17,16.80
2014,07,25,12,18,16.80
2014,07,25,12,19,16.80
2014,07,25,12,20,16.70
2014,07,25,12,21,16.70
2014,07,25,12,22,16.70
2014,07,25,12,23,16.70
2014,07,25,12,24,16.70
2014,07,25,12,25,16.70
2014,07,25,12,26,16.70
2014,07,25,12,27,16.70
2014,07,25,12,28,16.70
2014,07,25,12,29,16.70
2014,07,25,12,30,16.80
2014,07,25,12,31,16.80
2014,07,25,12,32,16.70
2014,07,25,12,33,16.70
2014,07,25,12,34,16.70
2014,07,25,12,35,16.70
2014,07,25,12,36,16.80
2014,07,25,12,37,16.80
2014,07,25,12,38,16.80
2014,07,25,12,39,16.80
2014,07,25,12,40,16.80
2014,07,25,12,41,16.70
2014,07,25,12,42,16.70
2014,07,25,12,43,16.80
2014,07,25,12,44,16.80
2014,07,25,12,45,16.80
2014,07,25,12,46,16.90
2014,07,25,12,47,17.00
2014,07,25,12,48,17.00
2014,07,25,12,49,17.00
2014,07,25,12,50,16.90
2014,07,25,12,51,16.90
2014,07,25,12,52,16.80
2014,07,25,12,53,16.80
2014,07,25,12,54,16.80
2014,07,25,12,55,16.80
2014,07,25,12,56,16.90
2014,07,25,12,57,16.90
2014,07,25,12,58,16.90
2014,07,25,12,59,16.80
2014,07,25,13,00,16.80
2014,07,25,13,01,16.80
2014,07,25,13,02,16.80
2014,07,25,13,03,16.80
2014,07,25,13,04,16.70
2014,07,25,13,05,16.70
2014,07,25,13,06,16.70
2014,07,25,13,07,16.70
2014,07,25,13,08,16.70
2014,07,25,13,09,16.70
2014,07,25,13,10,16.70
2014,07,25,13,11,16.80
2014,07,25,13,12,16.80
2014,07,25,13,13,16.80
2014,07,25,13,14,16.80
2014,07,25,13,15,16.90
2014,07,25,13,16,16.90
2014,07,25,13,17,16.90
2014,07,25,13,18,17.00
2014,07,25,13,19,17.00
2014,07,25,13,20,17.10
2014,07,25,13,21,17.10
2014,07,25,13,22,17.20
2014,07,25,13,23,17.20
2014,07,25,13,24,17.20
2014,07,25,13,25,17.30
2014,07,25,13,26,17.30
2014,07,25,13,27,17.30
2014,07,25,13,28,17.30
2014,07,25,13,29,17.40
2014,07,25,13,30,17.50
2014,07,25,13,31,17.60
2014,07,25,13,32,17.60
2014,07,25,13,33,17.60
2014,07,25,13,34,17.70
2014,07,25,13,35,17.60
2014,07,25,13,36,17.60
2014,07,25,13,37,17.60
2014,07,25,13,38,17.50
2014,07,25,13,39,17.60
2014,07,25,13,40,17.60
2014,07,25,13,41,17.60
2014,07,25,13,42,17.60
2014,07,25,13,43,17.70
2014,07,25,13,44,17.80
2014,07,25,13,45,17.80
2014,07,25,13,46,17.90
2014,07,25,13,47,18.00
2014,07,25,13,48,18.00
2014,07,25,13,49,18.10
2014,07,25,13,50,18.20
2014,07,25,13,51,18.20
2014,07,25,13,52,18.20
2014,07,25,13,53,18.20
2014,07,25,13,54,18.20
2014,07,25,13,55,18.30
2014,07,25,13,56,18.30
2014,07,25,13,57,18.30
2014,07,25,13,58,18.30
2014,07,25,13,59,18.30
2014,07,25,14,00,18.20
2014,07,25,14,01,18.20
2014,07,25,14,02,18.20
2014,07,25,14,03,18.20
2014,07,25,14,04,18.20
2014,07,25,14,05,18.30
2014,07,25,14,06,18.30
2014,07,25,14,07,18.30
2014,07,25,14,08,18.30
2014,07,25,14,09,18.40
2014,07,25,14,10,18.40
2014,07,25,14,11,18.40
2014,07,25,14,12,18.40
2014,07,25,14,13,18.40
2014,07,25,14,14,18.30
2014,07,25,14,15,18.30
2014,07,25,14,16,18.30
2014,07,25,14,17,18.30
2014,07,25,14,18,18.30
2014,07,25,14,19,18.30
2014,07,25,14,20,18.20
2014,07,25,14,21,18.20
2014,07,25,14,22,18.30
2014,07,25,14,23,18.30
2014,07,25,14,24,18.30
2014,07,25,14,25,18.40
2014,07,25,14,26,18.50
2014,07,25,14,27,18.50
2014,07,25,14,28,18.60
2014,07,25,14,29,18.60
2014,07,25,14,30,18.60
2014,07,25,14,31,18.50
2014,07,25,14,32,18.50
2014,07,25,14,33,18.50
2014,07,25,14,34,18.50
2014,07,25,14,35,18.40
2014,07,25,14,36,18.40
2014,07,25,14,37,18.40
2014,07,25,14,38,18.30
2014,07,25,14,39,18.30
2014,07,25,14,40,18.30
2014,07,25,14,41,18.40
2014,07,25,14,42,18.40
2014,07,25,14,43,18.40
2014,07,25,14,44,18.50
2014,07,25,14,45,18.60
2014,07,25,14,46,18.60
2014,07,25,14,47,18.60
2014,07,25,14,48,18.70
2014,07,25,14,49,18.70
2014,07,25,14,50,18.70
2014,07,25,14,51,18.70
2014,07,25,14,52,18.80
2014,07,25,14,53,18.80
2014,07,25,14,54,18.80
2014,07,25,14,55,18.80
2014,07,25,14,56,18.80
2014,07,25,14,57,18.80
2014,07,25,14,58,18.80
2014,07,25,14,59,18.80
2014,07,25,15,00,18.90
2014,07,25,15,01,18.90
2014,07,25,15,02,18.90
2014,07,25,15,03,19.00
2014,07,25,15,04,19.10
2014,07,25,15,05,19.10
2014,07,25,15,06,19.10
2014,07,25,15,07,19.00
2014,07,25,15,08,19.00
2014,07,25,15,09,18.90
2014,07,25,15,10,18.80
2014,07,25,15,11,18.70
2014,07,25,15,12,18.50
2014,07,25,15,13,18.40
2014,07,25,15,14,18.40
2014,07,25,15,15,18.40
2014,07,25,15,16,18.30
2014,07,25,15,17,18.30
2014,07,25,15,18,18.30
2014,07,25,15,19,18.20
2014,07,25,15,20,18.20
2014,07,25,15,21,18.20
2014,07,25,15,22,18.10
2014,07,25,15,23,18.10
2014,07,25,15,24,18.10
2014,07,25,15,25,18.10
2014,07,25,15,26,18.10
2014,07,25,15,27,18.10
2014,07,25,15,28,18.20
2014,07,25,15,29,18.20
2014,07,25,15,30,18.20
2014,07,25,15,31,18.20
2014,07,25,15,32,18.30
2014,07,25,15,33,18.30
2014,07,25,15,34,18.40
2014,07,25,15,35,18.40
2014,07,25,15,36,18.50
2014,07,25,15,37,18.50
2014,07,25,15,38,18.60
2014,07,25,15,39,18.60
2014,07,25,15,40,18.60
2014,07,25,15,41,18.60
2014,07,25,15,42,18.50
2014,07,25,15,43,18.60
2014,07,25,15,44,18.60
2014,07,25,15,45,18.50
2014,07,25,15,46,18.50
2014,07,25,15,47,18.40
2014,07,25,15,48,18.30
2014,07,25,15,49,18.30
2014,07,25,15,50,18.30
2014,07,25,15,51,18.30
2014,07,25,15,52,18.30
2014,07,25,15,53,18.30
2014,07,25,15,54,18.30
2014,07,25,15,55,18.30
2014,07,25,15,56,18.30
2014,07,25,15,57,18.30
2014,07,25,15,58,18.30
2014,07,25,15,59,18.30
2014,07,25,16,00,18.40
2014,07,25,16,01,18.40
2014,07,25,16,02,18.50
2014,07,25,16,03,18.60
2014,07,25,16,04,18.60
2014,07,25,16,05,18.70
2014,07,25,16,06,18.70
2014,07,25,16,07,18.80
2014,07,25,16,08,18.90
2014,07,25,16,09,19.00
2014,07,25,16,10,19.00
2014,07,25,16,11,19.10
2014,07,25,16,12,19.20
2014,07,25,16,13,19.20
2014,07,25,16,14,19.20
2014,07,25,16,15,19.20
2014,07,25,16,16,19.20
2014,07,25,16,17,19.30
2014,07,25,16,18,19.30
2014,07,25,16,19,19.30
2014,07,25,16,20,19.30
2014,07,25,16,21,19.30
2014,07,25,16,22,19.30
2014,07,25,16,23,19.30
2014,07,25,16,24,19.40
2014,07,25,16,25,19.40
2014,07,25,16,26,19.40
2014,07,25,16,27,19.40
2014,07,25,16,28,19.40
2014,07,25,16,29,19.40
2014,07,25,16,30,19.50
2014,07,25,16,31,19.60
2014,07,25,16,32,19.60
2014,07,25,16,33,19.70
2014,07,25,16,34,19.60
2014,07,25,16,35,19.60
2014,07,25,16,36,19.50
2014,07,25,16,37,19.50
2014,07,25,16,38,19.50
2014,07,25,16,39,19.50
2014,07,25,16,40,19.50
2014,07,25,16,41,19.50
2014,07,25,16,42,19.60
2014,07,25,16,43,19.60
2014,07,25,16,44,19.70
2014,07,25,16,45,19.80
2014,07,25,16,46,19.80
2014,07,25,16,47,19.90
2014,07,25,16,48,19.90
2014,07,25,16,49,19.90
2014,07,25,16,50,19.90
2014,07,25,16,51,19.80
2014,07,25,16,52,19.80
2014,07,25,16,53,19.80
2014,07,25,16,54,19.70
2014,07,25,16,55,19.70
2014,07,25,16,56,19.70
2014,07,25,16,57,19.70
2014,07,25,16,58,19.70
2014,07,25,16,59,19.70
2014,07,25,17,00,19.70
2014,07,25,17,01,19.70
2014,07,25,17,02,19.60
2014,07,25,17,03,19.60
2014,07,25,17,04,19.60
2014,07,25,17,05,19.60
2014,07,25,17,06,19.60
2014,07,25,17,07,19.70
2014,07,25,17,08,19.70
2014,07,25,17,09,19.80
2014,07,25,17,10,19.80
2014,07,25,17,11,19.90
2014,07,25,17,12,19.80
2014,07,25,17,13,19.80
2014,07,25,17,14,19.80
2014,07,25,17,15,19.80
2014,07,25,17,16,19.80
2014,07,25,17,17,19.90
2014,07,25,17,18,19.90
2014,07,25,17,19,20.00
2014,07,25,17,20,20.00
2014,07,25,17,21,20.10
2014,07,25,17,22,20.10
2014,07,25,17,23,20.20